SCP
0 0 0 0 0 0 0 0 0 0 0 0 0 0 1 1 1 0 0 1 1 2 2 1 2 2 2 2 2 2 2 2 2 2 2 2 2 2 1 1 1 1 1 1 1 1 1 1 1
0 0 0 0 0 0 0 0 0 0 0 0 0 1 1 1 1 1 1 1 1 2 1 1 2 2 2 2 2 2 2 2 2 2 2 2 2 2 1 1 1 1 1 1 1 1 1 1 1
0 0 0 0 0 0 0 0 0 0 0 0 0 1 1 1 1 1 1 1 2 2 1 1 2 2 2 2 2 2 2 2 1 2 2 2 2 2 1 1 1 1 1 1 1 1 1 1 1
0 0 0 0 0 0 0 0 0 0 0 0 1 1 1 1 1 1 1 1 2 2 2 2 2 2 2 2 1 1 1 1 1 1 2 2 2 2 1 1 1 1 1 1 1 1 1 1 1
0 0 0 0 0 0 0 0 0 0 0 0 1 1 1 2 2 2 2 2 2 2 2 2 2 2 2 2 1 1 2 2 1 1 1 1 2 2 2 1 1 1 1 1 1 1 1 1 1
0 0 0 0 0 0 0 0 0 0 0 0 1 1 2 2 2 2 2 2 3 3 2 2 2 2 2 2 2 2 2 2 2 2 1 1 2 2 2 1 1 1 1 1 1 1 1 1 1
0 0 0 0 0 0 0 0 0 0 0 1 1 2 2 2 2 3 3 3 3 3 3 3 3 3 2 2 2 2 2 2 2 2 1 1 1 1 2 2 1 1 1 1 1 1 1 1 1
0 0 0 0 0 0 0 0 0 0 0 1 1 2 2 2 3 3 4 4 4 3 3 3 3 3 3 2 2 2 2 2 2 2 2 1 1 1 1 2 1 1 1 1 1 1 1 1 1
0 0 0 0 0 0 0 0 0 0 1 1 2 2 2 3 3 4 5 5 4 3 3 3 4 4 3 3 3 2 2 2 2 2 2 2 1 1 1 2 2 1 1 1 1 1 1 1 1
0 0 0 0 0 0 0 0 0 1 1 1 2 3 3 3 4 4 5 4 3 3 3 3 4 5 4 3 3 3 3 2 2 2 2 2 2 1 1 1 2 1 1 1 1 1 1 1 1
0 0 0 0 0 0 0 0 0 1 1 2 2 3 4 4 4 4 4 4 3 3 3 4 4 5 5 4 4 3 3 3 3 3 3 2 2 2 2 2 2 2 1 1 1 1 1 1 1
0 0 0 0 0 0 0 0 1 1 2 2 3 3 4 4 4 5 5 4 4 4 4 4 4 4 5 4 4 4 3 3 3 3 3 3 3 2 2 2 2 2 1 1 1 1 1 1 1
0 0 0 0 0 0 0 1 1 2 3 3 4 4 4 4 5 5 5 5 5 5 5 5 4 4 4 4 4 4 4 4 4 4 4 4 4 3 2 2 2 2 1 1 1 1 1 1 1
0 0 0 0 0 0 0 1 1 2 3 4 5 5 5 5 5 6 6 5 5 5 5 5 4 4 4 4 4 4 4 4 4 4 5 5 4 3 3 2 2 2 2 2 1 1 1 1 1
0 0 0 0 0 0 1 1 1 2 3 4 4 4 4 4 4 5 5 5 5 5 5 5 5 5 4 5 5 5 4 4 4 4 5 5 5 4 3 2 2 2 2 2 2 2 1 1 1
0 0 0 0 0 0 1 1 1 2 2 3 3 3 3 3 3 3 3 4 4 5 5 5 6 5 5 5 5 4 4 4 4 4 4 4 5 4 3 3 3 2 2 2 2 2 1 1 1
0 0 0 0 0 0 1 1 1 1 2 2 2 3 3 2 2 2 2 3 4 4 5 6 6 6 6 5 4 4 4 4 4 4 4 4 4 4 4 4 3 3 3 2 2 1 1 1 1
0 0 0 0 0 0 1 1 1 2 2 2 2 2 2 2 2 2 2 3 4 4 5 6 7 7 6 5 5 4 4 4 4 4 3 3 3 4 5 5 4 3 3 2 2 1 1 1 1
0 0 0 0 0 0 1 1 2 2 2 2 2 2 2 2 1 1 2 2 3 3 4 5 6 7 7 7 6 5 4 3 3 3 2 2 2 3 4 5 4 3 3 2 2 1 1 1 0
0 0 0 0 0 0 1 1 1 2 2 1 1 1 1 1 1 1 1 1 2 3 4 4 4 5 7 8 7 5 4 3 3 2 2 1 1 2 3 3 2 2 2 2 1 1 1 1 0
0 0 0 0 0 0 1 1 1 1 1 1 1 1 1 1 1 1 1 1 1 2 3 3 3 3 5 7 7 5 4 3 2 2 1 1 1 1 2 1 1 1 1 1 1 1 1 1 0
0 0 0 0 0 0 0 1 1 1 1 1 1 1 1 1 1 1 1 1 1 1 2 2 2 2 3 5 6 5 4 3 2 2 2 1 1 1 1 1 1 1 1 1 1 1 1 1 0
0 0 0 0 0 0 0 0 1 1 1 1 0 1 1 1 1 1 1 1 1 1 1 1 2 2 2 3 4 4 4 4 3 2 2 1 1 1 1 1 1 1 1 1 1 1 1 1 0
0 0 0 0 0 0 0 0 0 1 1 0 0 1 1 1 1 1 1 1 1 1 1 1 2 2 1 2 3 3 4 3 3 2 2 2 1 1 1 1 1 1 1 1 1 1 1 0 0
0 0 0 0 0 0 0 0 0 0 0 0 0 0 1 1 1 1 1 1 1 1 1 1 1 1 1 1 1 2 3 3 2 2 2 2 1 1 1 1 1 1 1 1 0 0 0 0 0
0 0 0 0 0 0 0 0 0 0 0 0 0 0 0 0 0 1 1 1 1 1 0 1 1 1 1 1 1 1 1 2 2 2 2 1 1 1 1 1 1 1 1 1 0 0 0 0 0
0 0 0 0 0 0 0 0 0 0 0 0 0 0 0 0 0 1 1 1 1 1 0 1 1 2 2 2 1 1 0 0 1 1 1 1 1 0 0 0 0 0 0 0 0 0 0 0 0
0 0 0 0 0 0 0 0 0 0 0 0 0 0 0 0 0 1 1 1 1 1 1 1 2 2 2 2 1 0 0 0 0 0 0 0 0 0 0 0 0 0 0 0 0 0 0 0 0
0 0 0 0 0 0 0 0 0 0 0 0 0 0 0 0 0 0 1 1 1 1 1 1 2 2 2 1 1 0 0 0 0 0 0 0 0 0 0 0 0 0 0 0 0 0 0 0 0
0 0 0 0 0 0 0 0 0 0 0 0 0 0 0 0 0 0 1 1 1 1 1 2 2 2 1 1 0 0 0 0 0 0 0 0 0 0 0 0 0 0 0 0 0 0 0 0 0
Wind_Speed
2 1 3 4 6 5 3 5 4 4 4 3 1 3 6 6 6 4 1 11 15 16 15 17 19 19 18 18 17 16 16 16 16 16 16 16 16 15 15 14 13 13 13 12 12 12 13 13 13
0 2 4 5 5 0 6 5 4 4 4 4 3 1 2 3 1 4 5 10 16 16 14 14 19 19 19 18 18 17 17 17 16 15 16 16 15 14 14 14 13 12 12 12 12 13 13 13 13
1 3 5 5 4 5 5 3 4 5 7 3 2 1 2 2 2 5 6 13 15 14 13 15 21 19 19 19 18 17 17 17 16 15 15 14 14 13 13 13 13 13 12 12 12 12 13 13 13
3 5 6 4 3 5 5 6 6 7 6 3 2 1 1 2 2 5 12 15 15 13 12 15 20 19 19 18 18 18 17 16 16 15 14 13 13 12 12 13 13 12 12 12 12 12 12 12 12
5 5 4 1 4 5 6 7 5 5 4 2 2 2 1 4 6 11 14 14 15 12 10 13 18 18 18 18 18 17 17 15 14 14 14 13 12 11 11 12 12 12 12 12 12 12 11 11 11
5 5 4 2 5 6 6 5 4 4 4 2 3 3 0 3 6 9 11 11 12 12 10 11 17 19 18 18 17 16 15 14 13 13 13 12 11 10 10 11 11 11 11 11 11 11 11 9 9
6 5 4 3 3 5 5 2 3 4 4 3 2 4 1 3 5 9 9 9 9 10 9 9 10 13 16 17 16 15 14 13 12 12 12 12 12 11 11 10 10 10 10 10 10 10 9 8 7
5 6 3 2 2 5 4 5 3 3 4 2 2 5 2 3 8 11 10 9 8 8 8 8 7 7 7 9 15 15 14 13 13 13 13 13 12 12 11 9 9 10 10 10 9 9 8 7 5
5 6 2 4 4 5 3 4 5 3 1 3 3 2 3 11 12 12 9 7 7 8 7 8 8 7 7 6 10 12 14 13 13 11 13 11 6 6 7 9 10 10 10 9 9 8 7 6 4
5 4 6 6 5 4 5 3 4 4 4 3 4 6 9 11 11 11 9 9 9 9 8 7 8 8 8 7 6 5 6 7 6 5 7 5 4 4 6 8 10 10 10 9 9 8 6 4 1
5 6 5 5 6 4 4 4 2 0 2 1 3 6 8 10 8 8 7 7 8 8 8 8 7 7 7 5 5 4 4 4 5 6 6 5 4 3 3 3 4 5 6 4 4 4 2 2 2
4 5 5 5 3 3 3 2 1 0 3 2 4 8 9 9 8 8 8 8 7 7 8 7 7 7 6 5 4 5 4 4 5 5 6 5 4 4 3 3 3 3 2 3 3 2 2 2 2
3 4 4 6 5 4 2 2 1 2 2 2 5 7 7 7 6 4 4 5 6 7 7 7 6 7 6 5 4 5 5 5 5 5 6 6 5 5 4 3 3 3 3 4 3 3 3 3 3
3 4 5 6 3 2 4 1 2 2 1 5 6 5 4 4 4 3 3 4 5 6 6 7 7 7 6 4 4 4 4 4 4 4 6 7 5 5 5 4 4 4 4 4 4 4 4 3 3
1 3 6 3 1 1 3 3 0 0 4 6 5 4 4 2 2 1 2 2 3 3 4 5 6 5 5 5 4 3 3 3 4 3 4 5 5 5 5 5 5 4 4 4 4 4 3 3 3
2 3 4 6 3 1 4 0 3 2 6 6 5 4 4 4 4 4 3 1 1 2 2 3 4 5 5 4 4 3 3 4 3 3 4 5 6 6 5 5 5 4 4 4 4 4 4 3 4
5 2 2 6 4 3 4 1 3 4 6 6 4 4 4 5 6 6 5 4 3 2 3 3 3 4 4 3 2 3 2 2 2 3 3 5 6 6 5 5 4 5 4 4 5 4 4 5 5
1 1 2 4 4 5 5 2 3 5 7 6 5 4 5 5 5 6 6 6 5 4 4 3 3 3 3 2 2 2 2 2 2 2 3 4 4 5 5 4 5 5 5 4 5 5 5 5 6
2 1 3 4 1 4 5 4 4 4 6 6 4 4 4 4 5 6 7 7 6 6 5 4 3 2 2 2 2 3 2 2 2 1 2 3 3 4 4 4 4 5 5 6 7 6 7 5 6
3 2 3 3 2 4 5 4 3 5 4 4 4 4 4 5 6 7 7 7 6 6 5 4 3 2 0 1 1 1 2 2 2 2 2 2 2 2 3 3 4 4 4 6 7 7 5 4 4
4 5 4 3 2 4 4 2 1 2 4 5 5 4 5 5 5 7 7 7 7 6 6 4 4 2 1 0 1 2 2 2 1 1 1 1 1 1 1 2 3 4 4 5 7 8 7 7 4
4 6 5 3 3 1 1 2 3 1 0 2 3 3 5 5 5 6 6 7 7 6 5 5 5 3 3 1 1 2 2 2 2 1 1 2 2 2 1 1 2 3 3 4 6 7 5 8 6
5 1 3 2 4 2 2 3 4 2 3 3 1 2 3 4 5 6 6 6 6 6 5 5 5 5 4 2 0 1 2 2 2 3 3 3 3 3 2 2 2 2 2 3 4 5 6 5 6
3 6 6 5 5 1 2 3 5 4 5 3 3 2 2 4 5 6 6 5 6 6 6 6 5 5 5 4 2 1 2 4 4 4 3 2 2 3 4 3 3 2 2 2 3 4 6 5 5
4 6 4 4 4 4 1 2 7 3 3 4 4 3 2 3 4 6 7 7 7 7 6 5 5 5 5 4 3 2 2 3 4 4 4 3 2 2 3 3 3 3 3 3 4 4 4 4 5
3 7 7 4 4 4 2 4 5 1 2 3 4 4 3 3 4 5 6 6 5 6 5 4 4 4 5 4 4 4 4 3 3 4 4 4 3 3 4 4 5 5 5 5 5 5 5 5 5
4 2 4 7 2 1 4 4 3 3 3 4 4 4 3 3 4 4 5 6 6 5 5 4 4 4 5 4 5 5 5 5 5 6 5 4 4 5 6 6 6 6 6 6 7 7 7 7 7
4 7 5 5 4 3 4 4 5 6 7 6 5 4 3 3 3 4 5 5 5 4 4 4 4 5 5 5 5 5 6 7 6 6 7 7 6 6 7 7 7 7 7 7 8 8 8 9 7
2 4 5 4 4 5 3 7 4 6 7 8 7 5 4 3 3 4 4 5 5 5 5 5 5 6 6 6 6 7 7 7 8 8 8 8 7 7 7 7 8 8 9 8 10 9 10 11 9
2 4 6 4 3 4 3 8 2 2 4 7 7 6 5 4 3 3 4 5 6 6 6 6 6 6 6 6 7 8 8 8 9 9 8 8 9 8 8 8 9 9 10 9 10 11 10 11 10
Wind_Direction
303 79 91 64 56 50 255 250 244 293 306 310 272 187 176 174 173 206 136 136 132 139 145 147 147 145 141 136 131 127 124 122 122 124 127 130 133 136 138 139 139 138 136 133 130 127 126 126 127
345 98 65 64 91 158 264 249 251 255 275 310 318 186 163 210 163 123 126 140 137 140 143 146 147 146 143 139 136 133 131 128 126 127 129 132 135 137 138 140 139 137 136 134 132 130 129 130 131
113 67 86 81 130 190 241 253 248 278 279 269 263 225 202 198 151 151 147 139 135 138 141 150 149 147 145 142 140 139 136 134 132 132 134 135 136 137 139 140 140 139 138 137 135 133 133 133 134
91 58 60 85 219 229 239 269 281 295 302 248 182 222 301 11 142 137 134 137 135 139 142 152 152 149 147 146 145 143 141 140 139 139 139 139 139 140 141 142 142 141 140 139 138 137 137 137 136
61 82 78 29 258 255 249 265 279 286 284 257 163 187 317 14 77 117 133 139 139 139 143 152 152 151 150 150 149 148 146 145 145 145 144 143 142 143 143 144 144 145 145 144 142 141 141 140 139
61 73 99 234 268 274 266 256 291 286 277 270 164 160 27 41 90 119 128 131 136 139 141 150 155 155 154 154 153 152 150 150 150 150 150 149 148 148 147 148 149 149 148 147 146 146 147 143 139
106 105 153 200 271 289 272 293 297 293 299 283 158 130 17 56 91 107 107 111 121 132 138 146 155 158 159 157 156 155 154 155 156 156 156 157 156 157 156 155 156 155 154 152 151 151 151 146 141
121 106 129 213 238 267 282 324 299 305 297 314 110 140 180 128 109 102 97 102 115 127 138 145 147 147 151 157 162 161 161 162 164 165 166 167 167 166 166 161 164 164 164 163 161 160 158 153 146
89 80 171 220 216 258 298 331 318 315 353 13 37 75 123 124 116 110 108 109 127 140 146 150 151 148 147 153 168 166 168 170 171 173 176 173 168 167 169 172 175 174 174 174 171 171 166 160 154
92 137 220 219 211 247 297 300 301 345 13 23 43 60 105 118 123 130 142 150 158 162 161 157 157 154 155 164 162 161 167 170 170 171 175 167 159 171 174 180 185 184 183 183 182 183 175 158 130
147 186 226 240 230 241 278 290 300 44 336 236 153 137 125 124 129 142 154 161 167 164 165 165 163 162 162 163 162 167 167 168 172 175 172 161 158 168 172 168 186 186 186 177 179 177 158 144 146
174 231 222 248 222 212 229 259 338 225 232 208 156 147 137 140 151 162 165 165 159 162 172 170 168 164 165 162 164 163 168 176 180 180 174 168 172 176 173 178 175 170 165 162 158 156 153 150 154
206 259 248 245 263 229 209 220 165 270 266 87 111 126 143 152 161 161 152 152 151 167 172 171 169 168 167 166 169 165 170 178 183 182 184 181 183 186 183 183 180 179 173 170 164 165 165 160 156
227 248 279 281 270 212 160 228 126 271 76 90 103 123 140 152 158 140 142 159 173 177 174 170 173 170 167 172 173 169 167 171 175 183 192 189 188 187 185 185 186 186 183 174 167 169 167 161 147
269 306 319 316 323 207 121 22 64 170 96 85 86 91 82 65 68 121 171 180 183 175 165 171 171 158 161 166 170 157 157 165 179 180 187 192 189 188 188 189 192 191 184 172 161 158 152 148 140
42 32 337 315 352 349 106 62 337 27 97 90 85 84 73 45 31 19 28 34 86 116 134 157 164 157 161 164 169 155 164 168 176 177 186 191 189 187 187 191 196 183 175 172 168 161 149 138 131
30 34 317 318 355 34 81 132 342 34 97 93 80 73 64 44 28 19 24 36 57 86 109 125 134 147 151 146 141 139 146 172 174 175 189 192 190 188 185 193 191 176 172 174 176 164 149 142 130
263 343 316 307 334 46 73 83 26 42 82 87 81 70 61 49 25 20 27 38 49 60 72 82 89 110 117 115 123 127 134 159 167 175 180 179 184 191 188 190 187 178 174 172 168 154 142 139 131
177 213 278 275 285 73 87 90 48 53 71 73 68 61 56 42 28 28 32 39 44 45 51 59 73 97 121 150 158 154 162 163 153 140 139 161 172 181 186 187 183 179 181 175 164 151 145 137 133
195 251 270 302 44 117 114 89 57 50 67 71 64 51 48 38 25 23 25 31 34 33 34 37 40 48 146 192 170 150 143 151 135 124 127 120 143 151 176 182 186 179 177 167 165 157 150 149 159
221 201 214 211 41 68 110 58 58 57 72 69 56 50 44 39 23 16 18 24 27 23 16 13 11 14 352 100 115 108 105 90 98 125 134 84 98 124 159 180 180 176 173 176 174 171 165 165 177
244 218 189 172 115 288 128 203 249 191 115 79 50 37 39 32 24 17 14 19 21 12 8 10 3 355 349 0 151 160 167 161 163 136 110 78 65 73 95 155 161 169 168 180 179 175 170 167 171
214 133 132 139 136 93 43 145 265 187 221 207 157 50 35 33 29 18 13 11 13 8 7 7 7 5 360 2 149 167 143 121 104 101 87 65 50 47 54 74 99 124 147 172 177 173 172 172 171
148 73 62 52 75 101 229 165 254 218 216 197 166 126 54 30 26 19 11 12 14 11 12 10 13 11 8 13 36 104 135 131 125 112 101 80 62 43 40 64 79 93 110 135 158 165 169 168 162
93 90 39 8 16 251 260 193 245 223 198 184 171 145 81 43 26 16 10 8 8 8 10 11 13 11 11 22 31 47 105 127 124 120 113 102 81 54 36 52 70 78 88 95 105 117 128 137 142
143 135 153 191 218 268 308 236 253 161 118 112 122 122 93 56 34 24 11 4 3 3 4 6 8 11 16 31 35 42 57 87 94 94 94 94 88 76 61 62 67 69 79 87 91 92 94 97 107
125 127 153 131 147 256 275 275 294 149 146 139 133 125 97 64 45 29 15 10 6 360 359 4 14 22 28 39 49 58 65 77 85 86 84 83 81 81 73 70 69 67 74 85 90 87 86 86 87
108 137 97 115 150 249 282 266 242 208 202 186 165 147 112 72 49 34 20 11 9 4 3 18 29 34 38 46 57 65 70 78 82 84 82 77 72 74 76 72 70 71 75 81 87 87 86 85 77
97 93 102 112 151 165 252 267 234 207 190 179 167 145 126 101 61 36 23 14 12 16 25 35 42 48 51 52 60 68 69 74 79 79 78 78 74 70 73 75 75 74 75 77 83 83 85 85 79
170 162 147 154 215 181 197 265 330 165 158 153 145 132 118 103 77 49 33 25 23 26 31 37 43 53 55 57 66 72 73 75 76 75 74 76 75 69 70 74 75 76 75 76 81 84 81 84 82